Temperature
9 10 9 9 10 9 9 10 10 12 12 14 15 13 13 14 13 13 13 14 14 15 15 15 15 15 15 15 15 14 14 13 13 12 10 8 7 5 3 2 1 0 -1 -1
8 9 9 8 9 10 10 10 10 11 12 13 13 13 12 12 12 12 13 14 14 14 14 14 14 14 14 14 14 14 14 13 13 11 10 8 6 4 3 1 1 -0 -1 -1
7 8 8 8 9 10 10 9 9 11 12 12 10 10 11 12 12 12 13 13 13 13 14 14 14 13 13 13 13 13 13 13 12 11 10 8 5 3 2 1 0 -0 -1 -1
5 8 7 10 11 10 10 10 10 10 10 10 10 12 12 12 12 12 12 12 12 13 13 13 13 13 13 13 12 12 12 12 11 10 9 7 5 3 2 1 0 -0 -1 -1
5 5 7 8 9 9 9 9 10 10 10 11 11 10 12 13 12 11 11 11 12 12 12 12 12 12 12 12 12 11 11 11 10 9 8 6 4 3 2 1 0 -0 -1 -2
4 5 6 9 10 11 10 9 11 11 10 10 9 7 9 11 11 10 11 11 11 11 11 11 11 11 11 11 10 10 10 9 9 8 7 6 4 3 1 0 -0 -1 -1 -2
4 4 6 8 9 10 9 10 11 11 11 10 8 8 10 10 10 10 10 10 10 10 10 10 10 10 9 9 9 9 8 8 8 7 6 5 3 1 0 -1 -1 -1 -1 -2
3 4 6 8 8 9 10 11 11 10 10 10 9 9 9 9 9 9 9 9 9 9 9 9 9 8 8 8 8 8 8 8 7 6 5 4 2 0 -1 -2 -2 -2 -2 -2
6 8 9 10 10 11 11 10 10 10 10 9 9 8 8 8 8 8 8 8 8 8 8 8 8 7 7 7 7 7 7 7 6 6 4 3 1 -1 -2 -2 -3 -2 -2 -2
5 6 7 10 10 10 10 10 9 9 9 8 8 7 7 7 7 7 7 7 7 7 7 7 7 7 6 6 6 6 6 6 5 4 3 2 -0 -1 -2 -3 -3 -3 -2 -2
6 7 8 8 9 9 9 9 8 8 8 7 7 7 6 6 6 6 6 6 6 5 5 5 5 5 5 5 5 5 5 5 4 3 2 1 -1 -2 -2 -2 -2 -2 -1 -2
7 8 7 8 8 8 8 7 7 7 6 6 6 6 5 5 5 5 5 5 4 4 4 4 4 4 4 4 4 4 4 4 3 2 1 -0 -2 -3 -3 -4 -3 -3 -3 -3
8 8 7 7 7 7 6 6 6 5 5 5 5 5 4 4 5 4 4 4 4 3 3 3 3 3 3 3 3 3 3 3 2 2 0 -1 -2 -3 -4 -5 -5 -5 -4 -3
7 6 6 6 6 5 5 5 5 5 5 5 4 4 4 4 4 4 4 3 3 3 3 3 2 2 2 2 2 2 2 2 2 1 -0 -2 -3 -4 -5 -5 -5 -5 -4 -4
6 5 5 5 4 4 4 4 4 4 4 4 4 4 4 3 3 3 3 2 2 2 2 2 2 2 1 1 1 1 1 1 1 0 -1 -2 -4 -5 -6 -6 -6 -6 -4 -4
4 4 4 4 4 4 4 4 3 3 3 3 3 3 3 3 2 3 2 2 1 1 1 1 1 1 1 1 1 1 1 1 -0 -1 -2 -3 -4 -6 -6 -7 -7 -7 -5 -4
3 3 3 3 3 3 3 3 3 2 3 3 3 2 2 2 2 2 2 1 1 1 1 1 1 1 0 0 0 0 0 -0 -1 -1 -2 -3 -5 -6 -7 -7 -7 -7 -5 -4
4 3 3 3 3 2 3 3 3 2 2 2 2 2 2 1 1 1 1 1 1 1 2 1 0 0 0 -0 -0 -0 -0 -1 -1 -2 -3 -4 -5 -6 -7 -8 -8 -7 -6 -5
3 3 3 2 2 2 2 2 2 2 2 1 1 1 1 1 1 0 0 -0 0 1 1 0 0 0 0 -0 -1 -1 -1 -1 -2 -2 -3 -4 -6 -7 -8 -8 -8 -8 -7 -6
2 2 2 2 2 2 2 2 1 1 1 1 0 0 0 1 0 -0 -1 -1 0 0 -0 -0 -0 -0 -0 -0 -1 -1 -1 -1 -2 -3 -4 -5 -6 -7 -8 -8 -8 -8 -7 -6
2 2 1 1 1 1 1 1 1 0 0 -0 -0 -0 -1 -0 -0 -1 -2 -1 0 -0 -0 -0 -0 -1 -1 -1 -1 -1 -1 -2 -3 -3 -4 -5 -6 -7 -8 -8 -8 -8 -7 -6
1 1 1 1 1 1 1 1 0 -0 -0 -1 -1 -1 -1 -1 -1 -1 -1 -1 -1 -1 -1 -1 -1 -1 -1 -1 -1 -1 -2 -2 -3 -4 -5 -5 -6 -7 -8 -8 -8 -8 -7 -6
0 0 0 0 0 -0 -0 -0 -0 -1 -1 -1 -1 -1 -1 -2 -2 -2 -2 -1 -1 -1 -1 -1 -1 -1 -1 -1 -1 -1 -2 -3 -4 -4 -5 -5 -6 -7 -8 -8 -8 -7 -7 -6
-0 -0 -0 -0 -0 -1 -1 -1 -1 -1 -1 -2 -1 -1 -2 -2 -2 -2 -2 -2 -1 -1 -1 -1 -1 -1 -1 -1 -1 -2 -2 -3 -4 -5 -5 -6 -7 -7 -8 -8 -8 -7 -7 -6
-1 -1 -1 -1 -1 -2 -2 -2 -2 -2 -2 -2 -2 -2 -2 -3 -3 -3 -2 -2 -1 -1 -1 -1 -1 -1 -1 -1 -2 -2 -3 -4 -4 -5 -6 -6 -7 -7 -8 -8 -8 -7 -7 -6
-1 -1 -2 -2 -2 -2 -2 -2 -3 -3 -3 -3 -3 -3 -3 -3 -3 -3 -3 -2 -2 -1 -1 -1 -1 -1 -1 -2 -2 -3 -3 -4 -5 -6 -6 -7 -7 -8 -8 -8 -7 -7 -6 -6
-2 -2 -2 -2 -2 -2 -3 -3 -3 -4 -4 -4 -4 -4 -4 -4 -3 -3 -3 -2 -2 -2 -1 -1 -1 -1 -1 -2 -2 -3 -4 -4 -5 -6 -7 -7 -8 -8 -8 -8 -7 -7 -6 -6
Wind_Speed
10 11 8 8 11 10 13 14 15 22 23 29 24 18 15 14 14 14 14 13 11 10 9 8 7 7 9 10 10 12 14 17 20 18 17 16 17 17 16 16 16 14 13 12
7 10 10 10 14 19 19 16 16 23 26 24 15 10 10 11 11 11 12 12 12 11 11 10 8 8 8 10 11 12 16 18 16 15 16 17 17 16 15 15 13 13 13 12
8 7 6 10 14 18 11 10 11 15 15 10 10 12 12 11 10 10 11 11 12 11 11 10 10 8 9 9 9 12 15 16 14 14 16 16 16 15 16 16 14 13 13 12
5 1 11 10 6 10 12 14 13 12 13 12 12 12 10 8 6 10 11 11 11 11 11 10 9 8 8 7 8 11 14 15 14 14 16 14 15 16 15 13 13 13 13 13
3 6 11 9 10 7 8 9 8 8 9 9 8 8 6 4 5 8 10 11 11 11 10 10 11 9 7 8 8 10 14 15 14 14 15 15 17 17 15 13 13 14 12 13
5 6 9 10 7 1 2 8 5 2 5 7 8 10 9 10 11 12 12 10 10 10 9 11 11 7 7 9 9 13 14 14 12 13 16 17 18 16 13 13 14 13 12 12
8 9 11 11 6 1 4 7 2 3 7 8 6 8 11 14 13 12 12 13 11 10 10 11 10 7 9 11 13 13 11 10 11 13 15 15 13 12 11 13 12 12 12 11
7 8 11 7 5 6 8 5 7 9 9 10 11 12 13 13 12 12 12 12 11 10 11 11 9 8 10 13 13 10 9 10 11 12 12 12 12 12 12 13 13 12 11 10
11 11 7 4 8 7 6 11 12 10 11 12 13 14 14 12 11 11 12 11 10 10 12 12 10 8 12 14 12 10 10 10 10 10 11 10 12 12 12 12 12 11 11 10
9 12 12 12 11 12 14 15 12 11 12 11 12 12 12 11 10 11 11 11 10 11 13 14 12 11 11 13 11 10 11 10 8 8 9 10 11 12 12 13 13 12 11 10
17 16 13 13 13 13 13 12 13 12 10 9 9 10 9 9 11 10 10 10 10 11 13 15 14 14 13 11 10 10 11 9 7 8 9 10 12 12 13 14 15 15 12 11
22 16 15 15 10 12 13 12 11 9 8 7 6 7 9 10 10 10 12 11 12 13 13 15 14 15 14 11 9 10 10 8 7 6 8 9 9 10 19 18 22 24 18 14
22 18 17 16 12 9 9 7 5 4 5 7 7 8 9 10 9 11 13 13 13 14 14 15 15 15 14 11 9 10 11 9 6 7 8 9 9 11 10 14 21 22 22 20
12 11 13 11 9 5 3 2 3 5 6 7 8 9 10 10 11 13 14 14 14 14 15 15 14 16 14 11 10 10 10 12 9 7 8 9 10 10 9 10 11 11 16 21
10 9 9 6 3 2 2 3 5 7 9 9 9 10 11 12 14 15 15 14 14 14 15 14 15 16 13 10 10 11 10 8 7 7 8 9 9 9 9 10 10 8 6 11
8 6 4 2 3 3 4 5 6 9 10 11 12 13 13 13 14 15 15 13 13 16 16 15 16 15 13 11 11 10 9 14 11 7 7 8 8 9 10 10 10 9 10 10
5 3 1 1 3 5 6 7 8 10 11 12 14 14 14 14 15 15 15 12 13 15 16 16 16 14 12 11 10 9 9 10 13 9 7 8 8 9 9 10 10 10 9 11
4 3 2 3 4 6 8 9 9 11 12 13 14 14 14 15 16 17 16 15 15 15 16 14 13 12 12 11 9 8 8 8 7 7 7 8 8 9 9 10 10 10 7 10
1 1 3 5 7 7 8 10 11 11 12 13 13 14 15 15 15 15 15 15 16 17 13 11 19 16 13 13 14 8 8 8 8 7 6 10 10 9 9 10 9 9 8 9
3 5 7 8 8 8 10 12 12 13 13 13 13 14 15 15 14 14 14 15 14 13 13 16 16 13 12 12 15 8 8 8 8 7 7 7 8 9 9 10 10 9 9 9
7 8 9 10 11 11 12 12 13 14 13 13 13 15 15 16 15 14 14 15 14 13 13 19 14 12 11 13 15 9 8 8 8 7 7 7 8 9 9 10 10 10 9 9
8 9 11 11 12 13 12 11 12 13 13 13 14 14 14 15 14 14 14 13 14 18 15 12 12 16 18 19 10 9 8 8 7 7 7 7 8 9 9 10 10 9 9 8
9 11 12 13 14 14 12 12 13 12 13 14 14 15 15 14 13 13 15 12 11 19 17 13 18 24 26 15 9 9 8 8 7 7 7 7 8 8 9 10 9 9 8 8
12 12 13 13 12 13 14 14 13 12 13 13 14 14 14 13 13 11 12 18 22 24 16 17 24 25 22 10 8 8 8 7 6 6 6 7 7 7 8 8 9 8 8 9
13 13 13 13 13 12 13 13 12 12 13 11 13 14 12 10 12 14 14 15 21 22 15 17 22 21 13 9 8 8 7 6 5 5 6 6 7 8 8 8 9 8 8 8
12 12 12 12 12 12 11 10 10 11 11 12 13 12 11 10 12 13 13 14 16 20 16 12 11 12 9 8 8 7 6 5 5 4 5 6 7 8 8 8 9 8 8 8
11 10 10 10 10 10 9 10 11 12 12 13 14 13 13 12 12 13 14 14 14 13 12 11 9 9 8 7 7 5 4 3 3 3 5 6 7 7 8 9 8 8 8 8
Wind_Direction
254 268 269 249 249 230 219 228 245 265 269 277 287 299 303 306 312 316 318 321 321 316 311 304 280 249 232 230 218 211 214 220 224 222 218 216 212 208 203 200 200 197 198 205
265 257 255 257 251 249 248 244 245 263 272 275 291 304 303 308 314 319 323 323 320 317 314 307 290 266 245 236 222 211 220 227 227 220 217 216 214 207 202 200 196 191 197 203
268 269 295 264 237 238 231 220 219 247 262 302 322 316 312 312 318 319 315 312 312 310 305 301 294 276 259 246 222 216 226 232 227 222 221 217 212 208 204 199 192 192 198 203
278 324 241 247 239 228 237 250 239 251 274 295 291 291 285 275 304 323 317 311 309 306 305 301 295 286 271 253 228 226 232 235 228 221 222 217 211 211 207 198 194 195 200 205
229 253 271 287 269 225 219 268 252 243 273 292 301 315 294 266 308 309 302 296 292 290 290 293 295 292 281 265 245 239 241 239 230 219 219 215 214 212 204 196 195 197 199 202
203 227 254 247 251 218 172 277 265 223 297 308 339 336 305 308 315 308 302 297 296 298 299 300 302 303 287 275 260 253 250 246 233 219 217 218 217 211 202 197 197 195 200 203
221 238 262 258 273 159 214 251 314 311 308 304 293 269 280 298 303 301 302 302 302 304 303 300 305 307 290 283 273 268 261 250 236 224 221 221 216 206 197 196 193 195 199 202
204 222 255 248 167 201 238 293 311 309 303 296 291 290 295 300 301 306 308 308 310 310 307 305 305 297 289 286 282 277 265 253 240 226 218 216 209 203 194 193 193 195 198 203
208 227 249 228 222 253 287 295 295 293 295 296 295 297 301 302 305 307 306 306 308 308 306 307 306 297 291 293 294 286 272 259 246 227 215 206 203 200 194 194 197 197 197 205
256 259 262 269 271 276 278 279 281 283 288 289 289 294 299 302 304 306 305 307 310 313 311 310 310 303 289 292 292 286 277 268 247 226 216 207 204 201 200 201 201 199 198 204
263 271 276 260 261 271 279 287 293 293 290 289 292 297 299 303 303 304 305 305 307 307 305 304 306 304 301 297 294 286 280 270 250 229 217 211 211 211 209 211 207 200 199 195
266 268 272 281 278 284 287 288 290 292 298 301 297 295 300 300 299 302 304 305 306 304 302 303 305 303 303 299 292 285 284 273 253 233 220 214 214 221 226 221 223 219 208 196
262 273 275 284 288 285 282 285 292 296 295 299 302 296 297 298 299 301 302 303 301 301 300 301 302 302 301 299 292 282 277 274 256 236 223 216 214 216 223 225 225 222 214 203
267 278 282 284 286 291 291 308 312 302 295 288 289 294 297 297 298 301 301 298 298 298 298 298 299 299 299 298 294 287 280 275 264 242 226 219 216 214 213 210 209 212 214 209
264 258 263 276 287 307 329 325 320 312 308 306 301 300 300 301 301 300 299 299 299 297 297 298 299 298 300 298 294 291 286 277 264 247 230 221 215 212 210 210 211 203 189 204
281 287 278 266 275 294 307 308 306 303 305 303 304 303 300 296 294 295 296 296 298 300 300 299 296 295 297 296 295 294 287 283 278 257 235 222 214 211 209 208 208 201 197 194
258 262 242 273 285 291 290 288 285 289 294 296 298 299 300 300 299 298 298 296 292 291 291 290 289 291 292 290 289 292 290 288 283 266 234 220 213 210 208 208 207 205 201 195
192 189 199 247 273 286 293 292 288 289 290 290 295 298 298 298 297 298 300 301 300 297 292 286 283 289 289 289 288 287 286 283 271 258 237 221 216 209 208 208 207 203 193 196
112 266 282 282 279 278 280 285 288 287 288 292 293 293 291 289 289 291 296 299 300 299 296 291 301 305 297 295 298 283 280 278 269 256 239 228 222 209 206 206 204 200 191 188
310 299 290 286 284 279 279 283 285 287 288 289 290 291 292 292 293 295 297 293 287 281 284 292 296 293 292 293 298 286 275 270 263 252 235 222 213 206 203 203 200 195 191 192
297 292 288 284 283 280 277 279 284 286 288 289 288 289 291 293 294 294 296 298 292 287 290 296 298 294 295 296 298 287 277 269 259 244 230 219 212 205 200 197 196 194 193 191
290 286 285 284 284 285 283 280 282 285 288 289 288 289 292 295 296 295 286 283 288 294 300 296 295 296 302 303 296 288 280 271 257 238 224 215 208 202 197 193 192 191 190 186
284 282 282 283 283 284 286 286 285 285 285 287 290 292 291 291 294 295 298 294 294 299 303 295 296 301 307 308 296 289 283 271 255 236 220 210 202 197 193 189 187 186 182 179
287 287 283 282 284 287 289 288 285 284 282 284 284 282 283 291 294 288 285 294 300 301 300 295 299 305 310 307 296 292 285 271 256 233 213 201 194 189 185 182 180 179 177 173
283 284 284 286 287 286 285 287 288 287 287 287 285 284 281 277 283 293 295 295 297 302 300 299 302 306 307 298 295 292 284 270 255 224 201 191 185 181 177 175 175 173 173 173
279 282 283 279 279 282 285 286 286 287 290 292 294 293 291 290 288 291 294 294 294 299 300 297 298 300 298 296 293 290 283 277 265 226 191 182 177 173 170 170 166 168 168 166
277 279 282 283 281 277 276 277 281 285 287 290 293 296 296 297 297 298 297 298 299 299 298 298 296 294 294 295 294 290 278 259 233 199 178 172 168 166 165 162 163 161 159 160
Height
1533 1529 1530 1529 1527 1526 1526 1518 1514 1493 1486 1472 1465 1465 1462 1458 1454 1449 1444 1441 1438 1435 1433 1430 1427 1425 1423 1422 1420 1418 1414 1411 1408 1406 1405 1404 1404 1405 1408 1410 1413 1416 1419 1421
1531 1525 1525 1524 1518 1512 1507 1503 1499 1488 1479 1464 1465 1463 1459 1455 1451 1447 1444 1441 1438 1435 1431 1428 1425 1422 1420 1417 1414 1411 1407 1403 1400 1397 1394 1393 1393 1395 1398 1401 1404 1407 1410 1412
1528 1522 1521 1519 1503 1496 1493 1488 1487 1482 1469 1462 1463 1460 1457 1453 1450 1447 1444 1440 1437 1433 1429 1426 1422 1419 1415 1411 1408 1404 1399 1395 1392 1388 1385 1383 1384 1385 1387 1390 1394 1398 1401 1404
1532 1523 1522 1495 1484 1483 1482 1477 1473 1470 1466 1464 1462 1458 1454 1451 1449 1445 1442 1438 1434 1429 1425 1422 1418 1414 1410 1405 1401 1396 1392 1387 1384 1379 1376 1375 1374 1374 1377 1381 1384 1388 1392 1395
1533 1527 1508 1494 1481 1477 1478 1474 1465 1465 1463 1461 1458 1454 1450 1449 1447 1443 1439 1435 1430 1425 1420 1416 1412 1407 1403 1398 1393 1388 1383 1379 1375 1371 1367 1365 1364 1364 1367 1371 1375 1379 1383 1386
1529 1526 1508 1485 1472 1471 1473 1474 1462 1461 1461 1459 1456 1456 1447 1444 1441 1436 1432 1428 1424 1419 1414 1410 1405 1400 1395 1390 1385 1380 1375 1370 1366 1361 1358 1355 1354 1355 1357 1361 1365 1370 1374 1377
1522 1517 1494 1477 1471 1472 1478 1469 1461 1459 1458 1456 1454 1452 1445 1439 1435 1431 1426 1422 1417 1412 1407 1403 1398 1392 1387 1382 1377 1372 1366 1361 1357 1353 1349 1347 1346 1346 1348 1352 1356 1360 1365 1368
1514 1512 1493 1467 1470 1470 1465 1459 1458 1455 1453 1450 1446 1442 1437 1433 1428 1424 1419 1415 1410 1405 1400 1396 1391 1385 1379 1374 1369 1364 1358 1353 1349 1344 1341 1339 1338 1338 1340 1343 1347 1351 1356 1359
1490 1479 1467 1464 1463 1461 1460 1457 1454 1451 1448 1445 1440 1435 1431 1427 1422 1417 1413 1408 1403 1398 1392 1389 1385 1379 1372 1366 1361 1355 1350 1345 1341 1336 1333 1331 1330 1330 1331 1334 1338 1342 1346 1350
1479 1467 1462 1460 1458 1456 1455 1452 1448 1446 1443 1439 1434 1429 1425 1420 1416 1411 1407 1402 1397 1391 1385 1380 1376 1371 1365 1359 1353 1348 1342 1337 1333 1328 1325 1323 1322 1322 1323 1325 1328 1333 1337 1342
1467 1460 1456 1452 1452 1450 1447 1445 1442 1439 1436 1432 1428 1424 1420 1415 1410 1405 1400 1395 1390 1384 1378 1373 1368 1363 1358 1352 1346 1340 1335 1330 1325 1321 1318 1316 1315 1315 1315 1317 1321 1325 1329 1334
1455 1452 1451 1445 1446 1445 1441 1437 1435 1432 1429 1426 1423 1419 1415 1410 1405 1400 1394 1389 1383 1378 1372 1366 1361 1355 1350 1345 1340 1334 1328 1323 1319 1314 1311 1309 1308 1307 1308 1311 1315 1319 1324 1328
1447 1445 1443 1439 1438 1436 1434 1431 1429 1427 1424 1421 1418 1414 1410 1404 1399 1394 1388 1383 1377 1371 1365 1359 1353 1348 1343 1338 1333 1327 1322 1317 1312 1308 1304 1302 1301 1301 1301 1304 1308 1312 1316 1321
1443 1440 1435 1433 1432 1430 1428 1426 1425 1423 1421 1417 1413 1409 1404 1398 1392 1387 1381 1376 1370 1363 1358 1352 1346 1341 1337 1331 1326 1321 1316 1311 1306 1301 1298 1296 1294 1294 1295 1297 1300 1304 1309 1314
1435 1433 1431 1428 1427 1426 1425 1423 1421 1419 1415 1412 1408 1403 1398 1391 1385 1380 1375 1369 1362 1356 1350 1345 1339 1334 1330 1325 1320 1315 1310 1305 1300 1295 1291 1289 1288 1288 1289 1291 1294 1298 1303 1308
1429 1427 1426 1425 1424 1423 1422 1420 1417 1414 1410 1406 1401 1396 1391 1385 1379 1373 1367 1362 1355 1348 1343 1338 1332 1327 1323 1318 1313 1308 1303 1298 1294 1289 1285 1283 1282 1282 1283 1285 1288 1291 1296 1301
1424 1423 1423 1422 1422 1421 1419 1417 1414 1410 1405 1401 1395 1390 1384 1377 1371 1365 1360 1355 1349 1342 1337 1331 1326 1321 1316 1312 1307 1302 1297 1292 1287 1283 1279 1277 1276 1276 1278 1280 1282 1285 1289 1295
1421 1422 1422 1421 1420 1418 1415 1413 1409 1405 1400 1395 1389 1382 1377 1370 1364 1357 1352 1346 1340 1335 1331 1326 1320 1314 1310 1306 1300 1295 1290 1285 1281 1277 1273 1271 1270 1271 1272 1274 1277 1281 1285 1290
1420 1421 1420 1419 1417 1414 1411 1407 1403 1398 1393 1388 1381 1375 1369 1364 1358 1351 1345 1339 1333 1326 1322 1318 1313 1308 1303 1299 1294 1289 1284 1279 1275 1271 1268 1266 1265 1265 1267 1269 1272 1276 1280 1285
1419 1419 1417 1415 1412 1409 1405 1401 1396 1391 1386 1380 1374 1367 1361 1356 1351 1344 1338 1332 1327 1322 1316 1311 1306 1301 1296 1292 1287 1282 1277 1273 1268 1264 1262 1260 1260 1260 1262 1265 1268 1272 1276 1281
1417 1415 1412 1409 1406 1402 1399 1394 1388 1382 1377 1372 1366 1360 1354 1348 1343 1337 1330 1324 1319 1316 1310 1305 1300 1295 1290 1285 1280 1275 1270 1266 1262 1258 1256 1254 1254 1255 1257 1260 1264 1267 1272 1277
1412 1409 1406 1403 1398 1394 1390 1386 1381 1375 1369 1364 1359 1353 1347 1340 1335 1329 1324 1319 1312 1308 1303 1298 1293 1288 1283 1278 1273 1268 1263 1259 1255 1252 1250 1249 1249 1251 1253 1256 1260 1264 1268 1273
1406 1403 1399 1395 1390 1385 1380 1377 1372 1367 1361 1356 1351 1346 1340 1334 1329 1323 1315 1311 1306 1301 1296 1291 1287 1282 1277 1271 1266 1261 1256 1252 1248 1246 1244 1244 1245 1247 1249 1252 1256 1261 1265 1270
1399 1395 1391 1386 1382 1376 1370 1366 1363 1358 1354 1349 1344 1339 1333 1327 1320 1316 1311 1304 1300 1295 1289 1285 1280 1275 1270 1265 1259 1254 1250 1245 1242 1240 1239 1240 1241 1243 1246 1250 1254 1258 1263 1268
1390 1386 1381 1377 1372 1367 1362 1358 1354 1349 1345 1340 1335 1330 1326 1320 1314 1308 1303 1297 1292 1288 1282 1278 1274 1269 1264 1258 1253 1248 1244 1240 1237 1236 1235 1236 1237 1240 1243 1247 1251 1256 1261 1266
1380 1376 1372 1369 1364 1360 1355 1350 1345 1341 1336 1330 1325 1321 1316 1312 1306 1301 1295 1290 1286 1281 1276 1272 1267 1262 1257 1252 1247 1243 1239 1236 1233 1232 1232 1233 1235 1237 1241 1245 1250 1254 1259 1265
1371 1367 1363 1359 1355 1352 1347 1343 1338 1333 1328 1323 1317 1312 1307 1303 1298 1293 1288 1283 1279 1274 1270 1266 1261 1256 1252 1247 1243 1238 1235 1232 1230 1229 1229 1231 1233 1236 1240 1244 1249 1253 1259 1264